Regional Weather Roundup
Issued by NWS

Home | Current Version | Previous Version | Text Only | Print | Product List | Glossary On
Versions: 1 2 3 4 5 6 7 8 9 10 11 12 13 14 15 16 17 18 19 20 21 22 23 24 25 26 27 28 29 30 31 32 33 34 35 36 37 38 39 40 41 42 43 44 45 46 47 48 49 50
000
ASHW40 PHFO 301843
RWRHI

WEATHER ROUNDUP FOR HAWAII
NATIONAL WEATHER SERVICE HONOLULU HI
800 AM HST TUE SEP 30 2014

THIS IS AN AUTOMATED REPORT THAT HAS NOT BEEN QUALITY CONTROLLED.

NOTE..."FAIR" INDICATES FEW OR NO CLOUDS BELOW 12,000 FEET WITH NO
SIGNIFICANT WEATHER AND/OR OBSTRUCTIONS TO VISIBILITY.

* - THESE SITES REPORT LIMITED FIELDS

HIZ001>004-301900-
KAUAI-NIIHAU-

CITY           SKY/WX    TMP DP  RH WIND       PRES   REMARKS
LIHUE APT      MOSUNNY   78  73  84 W6        29.97R
PORT ALLEN*      N/A     77 N/A N/A N6          N/A
POIPU*           N/A     75 N/A N/A N3          N/A
PRINCEVILLE*   NOT AVBL
KOKOLE POINT*    N/A     81 N/A N/A MISG        N/A
MOLOAA DAIRY*  NOT AVBL
WAIMEA HTS*      N/A     84  70  61 N2G8        N/A
PUU OPAE*        N/A     75  66  73 CALM        N/A
PUU LUA*       NOT AVBL
MAKAHA RIDGE*  NOT AVBL
$$

HIZ005>011-301900-
OAHU-

CITY           SKY/WX    TMP DP  RH WIND       PRES   REMARKS
HONOLULU       MOSUNNY   81  70  69 NW3       29.95R
KALAELOA       SUNNY     81  72  74 CALM      29.97R
KANEOHE MCB    SUNNY     87  75  67 CALM      29.96R HX  96
WHEELER FIELD  MOSUNNY   79  68  69 CALM      30.03R
BELLOWS*         N/A    N/A N/A N/A SW2         N/A
KAHUKU*          N/A    N/A N/A N/A E2          N/A
WHEELER*       NOT AVBL
WAIANAE HARBOR NOT AVBL
DILLINGHAM*      N/A     90  79  70 NE2         N/A  HX 105
KAHUKU TRN*    NOT AVBL
KAWAILOA*      NOT AVBL
KII*             N/A     79  75  89 SE3         N/A
MAKUA RANGE*   NOT AVBL
OAHU FOREST NW   N/A     72  70  94 CALM        N/A
SCHOFIELD BRK* NOT AVBL
SCHOFIELD S*   NOT AVBL
WAIANAE VLY*     N/A     84  68  58 SE3         N/A
KUAOKALA*        N/A     81  70  69 CALM        N/A
HONOULIUULI*   NOT AVBL
MOKUOLOE IS*     N/A    N/A N/A N/A MISG        N/A
PALEHUA*         N/A     91  75  59 CALM        N/A  HX 102
WAIAWA PHB*    NOT AVBL
$$

HIZ012>013-301900-
MOLOKAI-

CITY           SKY/WX    TMP DP  RH WIND       PRES   REMARKS
MOLOKAI AIRPT  MOSUNNY   81  73  76 E3        29.98R
KALAUPAPA      NOT AVBL
MAKAPULAPAI*     N/A     84  72  65 E3          N/A
MOLOKAI 1*       N/A     79  70  73 N2G8        N/A
PUU ALII*        N/A     62  61  96 CALM        N/A
$$

HIZ016-301900-
KAHOOLAWE-

CITY           SKY/WX    TMP DP  RH WIND       PRES   REMARKS
KAHOOLAWE*       N/A     73 N/A N/A SE9         N/A
HAKIOAWA*      NOT AVBL
HONOKANAIA*      N/A     83  73  70 E5        29.99R
KANELOA*         N/A     73  68  83 NE6G12      N/A
KEALIALALO*    NOT AVBL
LUA MAKIKA*    NOT AVBL
$$

HIZ014>015-301900-
LANAI-

CITY           SKY/WX    TMP DP  RH WIND       PRES   REMARKS
LANAI CITY       N/A    N/A N/A N/A MISG        N/A
LANAI 1*         N/A     79  77  94 S6          N/A
$$

HIZ017>028-301900-
MAUI-

CITY           SKY/WX    TMP DP  RH WIND       PRES   REMARKS
KAHULUI        SUNNY     80  71  74 CALM      29.97R
KAPALUA-W MAUI MOSUNNY   81  68  65 CALM      29.98
HANA AIRPORT   MOSUNNY   82  73  74 CALM      30.01S
HANA*          NOT AVBL
HALEAKALA SUMM   N/A     50  39  66 E10         N/A
MAALAEA BAY*   NOT AVBL
HALEAKALA*     NOT AVBL
KAUPO GAP*       N/A     66  64  94 SE1G8       N/A
KULA 1*          N/A     54  49  83 E3          N/A
$$

HIZ023>026-301900-
BIG ISLAND OF HAWAII COAST AND LOWER SLOPES-

CITY           SKY/WX    TMP DP  RH WIND       PRES   REMARKS
KAILUA KONA    MOSUNNY   84  64  51 NE6       29.95R
HILO           PTSUNNY   73  67  81 SW6       29.99R
HONOKAA*       NOT AVBL
KAWAIHAE MWT*  NOT AVBL
KAWAIHAE*        N/A     82 N/A N/A W6          N/A
SOUTH POINT*     N/A    N/A N/A N/A MISG        N/A
UPOLU AIRPORT* NOT AVBL
KAMUELA*       CLEAR     73  63  68 NE12      30.09F
HAKALAU*         N/A     64  53  67 E1          N/A
KALOKO-HONOKO*   N/A     84  68  58 SE6       29.95R
PALI 2*        NOT AVBL
KEALAKOMO*       N/A     81  66  61 VRB9        N/A
KAUPULEHU*       N/A     82  61  47 VRB3        N/A
KAPAPALA*        N/A     74  68  82 CALM        N/A
LOWER KAHUKU*  NOT AVBL
PUHE CS*       NOT AVBL
PUHO CS*         N/A     79  64  59 E2          N/A
PTA KEAMUKU*     N/A    N/A N/A N/A NE6         N/A
WAIKOLOA*        N/A     82  63  51 E8          N/A
$$

HIZ027>028-301900-
BIG ISLAND OF HAWAII INTERIOR AND SUMMMITS-

CITY           SKY/WX    TMP DP  RH WIND       PRES   REMARKS
BRADSHAW FIELD SUNNY     62  47  56 SW2       30.33R
MK VISITOR CEN NOT AVBL
MAUNA KEA*       N/A     39  14  35 CALM        N/A
MAUNA LOA*       N/A    N/A N/A N/A MISG        N/A
MAUNA LOA 1*     N/A    N/A N/A N/A MISG        N/A
PTA KIPUKA*    NOT AVBL
PTA RANGE 17*    N/A     52  41  66 SE3G10      N/A
PTA WEST*      NOT AVBL
NENE CABIN*    NOT AVBL
AHUMOA*          N/A     63  55  76 S3          N/A
PTA PORTABLE*  NOT AVBL
PUU MALI*      NOT AVBL
$$

HIC003-301900-
NORTHWEST ISLANDS-

CITY           SKY/WX    TMP DP  RH WIND       PRES   REMARKS
MIDWAY ISLAND  CLEAR     73  64  73 CALM      29.96R
MIDWAY NOS*    NOT AVBL
FRENCH FRIGATE NOT AVBL
$$

PHZ110>124-180-301900-
BUOY REPORTS

STATION/POSITION TIME  TEMP    WIND        PRES    WAVE   SWELL
                       AIR SEA DIR/SP/G            HT/PER HT/DIR
                 (UTC) (F)     (DEG/KT/KT) (MB)    (FT/S) (FT/D)
BUOY 51001       NOT AVBL
BUOY 51101       NOT AVBL
BUOY 51100       1700   79 81  140/  8/ 12 1015.5
BUOY 51003       1800   82 83   90/ 10/ 12 1013.5R   5/17   5
BUOY 51004       1711   80 81   70/ 10/ 12 1014.0R   7/17   7/180
BARBERS PT BUOY  NOT AVBL
WAIMEA BAY BUOY  1800      82                N/A     3/20   2/310
KAILUA BAY BUOY  1800      82                N/A     4/ 8   2/360
LANAI BUOY       NOT AVBL
BARBERS PT 2     1800      83                N/A     4/18   3/190
PAUWELA MAUI     1800      81                N/A     5/ 8   2/350
HILO             1800      81                N/A     5/ 8   2/360
KANEOHE BAY BUOY NOT AVBL
HANALEI KAUAI    NOT AVBL
KAHULUI HARBOR   1800   82 81  340/  1/  1 1014.8R
HONOLULU HARBOR  1800   80     240/  4/  5 1014.8R
KILO NALU        NOT AVBL
HILO HARBOR      1800   74     110/  1/  2 1015.1R
MOKUOLOE         1800      84              1014.7R
NAWILIWILI       1800      82                N/A
WHOTS BUOY       NOT AVBL
BUOY 51028       NOT AVBL
$$

......................KEY........................................
  SKY/WX - SKY CONDITIONS/PRESENT WEATHER
  TMP    - TEMPERATURE IN FAHRENHEIT
  DWPT   - DEWPOINT IN FAHRENHEIT
  RH     - RELATIVE HUMIDITY IN PERCENT
  WIND   - DIRECTION AND SPEED /MPH FOR ISLANDS...KTS FOR BUOYS/
  PRES   - MEAN SEA LEVEL PRESSURE IN INCHES OF HG
  VSB    - VISIBILITY IN MILES
  HX     - HEAT INDEX
  WCI    - WIND CHILL INDEX
  VRB    - VARIABLE WIND DIRECTION
  N/A    - NOT AVAILABLE


USA.gov is the U.S. government's official web portal to all federal, state and local government web resources and services.